Lewistown, MT

11:39 PM MDT on April 22, 2017 (GMT -0600)
Lewistown Municipal

Weather History for KLWT - March, 2013

Change the Weather History Date:

Monday, March 11, 2013

  Actual Average Record
Temperature  
Mean Temperature 27 °F 31 °F  
Max Temperature 36 °F 42 °F 73 °F (1902)
Min Temperature 18 °F 20 °F -21 °F (1932)
Degree Days  
Heating Degree Days 38 34  
Month to date heating degree days 402 387  
Since 1 July heating degree days 5910 6191  
Cooling Degree Days 0 0  
Month to date cooling degree days 0 0  
Year to date cooling degree days 0 0  
Moisture  
Dew Point 22 °F    
Average Humidity 78    
Maximum Humidity 92    
Minimum Humidity 64    
Precipitation  
Precipitation 0.03 in 0.03 in 0.50 in (1896)
Month to date precipitation 0.17 0.25  
Year to date precipitation 1.97 1.26  
Snow  
Snow 0.00 in - - ()
Snow Depth 0.00 in    
Sea Level Pressure  
Sea Level Pressure 30.15 in    
Wind  
Wind Speed 10 mph (WNW)    
Max Wind Speed 17 mph    
Max Gust Speed 28 mph    
Visibility 4 miles    
Events Fog , Snow    
T = Trace of Precipitation, MM = Missing Value Source: NWS Daily Summary

Daily Weather History Graph

Daily Weather History Graph

Search for Another Location

Airport or City:

Trip Planner

Search our weather history database for the weather conditions in past years. The results will help you decide how hot, cold, wet, or windy it might be!

Date:

Astronomy

Mar. 11, 2013 Rise Set
Actual Time 7:38 AM MDT 7:18 PM MDT
Civil Twilight 7:07 AM MDT 7:48 PM MDT
Nautical Twilight 6:32 AM MDT 8:24 PM MDT
Astronomical Twilight 5:56 AM MDT 9:00 PM MDT
Moon 7:11 AM MDT (3/11) 7:38 PM MDT (3/11)
Length of Visible Light 12h 41m
Length of Day
11h 40m
Waning Crescent, 0% of the Moon is Illuminated
Mar 11
Waning Crescent
Mar 11
New
Mar 19
First Quarter
Mar 27
Full
Apr 2
Last Quarter

Hourly Weather History & Observations

Time (MDT) Temp. Windchill Dew Point Humidity Pressure Visibility Wind Dir Wind Speed Gust Speed Precip Events Conditions
12:54 AM 34.0 °F 25.5 °F 27.0 °F 75% 30.00 in 10.0 mi WSW 11.5 mph - N/A   Mostly Cloudy
1:54 AM 35.1 °F 28.6 °F 25.0 °F 67% 30.00 in 10.0 mi West 8.1 mph - N/A   Clear
2:54 AM 33.1 °F 24.4 °F 24.1 °F 70% 30.02 in 10.0 mi WNW 11.5 mph - N/A   Clear
3:54 AM 33.1 °F 24.4 °F 24.1 °F 70% 30.04 in 10.0 mi WNW 11.5 mph 19.6 mph N/A   Scattered Clouds
4:54 AM 30.0 °F 21.7 °F 23.0 °F 75% 30.05 in 10.0 mi West 9.2 mph - N/A   Clear
5:54 AM 28.9 °F 21.1 °F 21.9 °F 75% 30.05 in 10.0 mi West 8.1 mph - N/A   Scattered Clouds
6:54 AM 30.0 °F 25.2 °F 23.0 °F 75% 30.06 in 10.0 mi WNW 4.6 mph - N/A   Overcast
7:54 AM 30.0 °F 21.7 °F 23.0 °F 75% 30.08 in 6.0 mi WNW 9.2 mph - 0.00 in Snow Light Snow
8:54 AM 28.0 °F 20.8 °F 24.1 °F 85% 30.11 in 10.0 mi NNW 6.9 mph - 0.00 in   Overcast
9:21 AM 28.4 °F 21.2 °F 24.8 °F 86% 30.04 in 2.0 mi WNW 6.9 mph - 0.00 in Snow Light Snow
9:23 AM 28.4 °F 21.2 °F 24.8 °F 86% 30.04 in 1.8 mi WNW 6.9 mph - 0.00 in Snow Light Snow
9:42 AM 26.6 °F 17.5 °F 24.8 °F 93% 30.05 in 2.0 mi WNW 9.2 mph - 0.00 in Snow Light Snow
9:50 AM 26.6 °F 19.1 °F 24.8 °F 93% 30.05 in 6.0 mi WNW 6.9 mph - 0.00 in Snow Light Snow
9:54 AM 27.0 °F 18.0 °F 24.1 °F 89% 30.14 in 8.0 mi WNW 9.2 mph - 0.00 in Snow Light Snow
10:16 AM 26.6 °F 19.1 °F 21.2 °F 80% 30.07 in 3.0 mi NW 6.9 mph - 0.00 in Snow Light Snow
10:18 AM 26.6 °F 18.2 °F 21.2 °F 80% 30.07 in 1.8 mi NW 8.1 mph - 0.00 in Snow Light Snow
10:23 AM 26.6 °F 16.2 °F 23.0 °F 86% 30.07 in 0.5 mi WNW 11.5 mph - 0.00 in Fog , Snow Snow
10:32 AM 26.6 °F 17.5 °F 24.8 °F 93% 30.07 in 0.2 mi WNW 9.2 mph - 0.00 in Fog , Snow Snow
10:34 AM 26.6 °F 19.1 °F 24.8 °F 93% 30.07 in 0.5 mi NW 6.9 mph - 0.00 in Fog , Snow Snow
10:45 AM 26.6 °F 17.5 °F 24.8 °F 93% 30.07 in 1.0 mi WNW 9.2 mph - 0.01 in Snow Light Snow
10:54 AM 26.1 °F 16.2 °F 23.0 °F 88% 30.16 in 2.0 mi WNW 10.4 mph - 0.01 in Snow Light Snow
11:02 AM 26.6 °F 16.8 °F 24.8 °F 93% 30.08 in 0.8 mi WNW 10.4 mph - 0.00 in Snow Light Snow
11:54 AM 25.0 °F 14.2 °F 23.0 °F 92% 30.19 in 0.8 mi WNW 11.5 mph - 0.00 in Snow Light Snow
12:11 PM 26.6 °F 16.2 °F 23.0 °F 86% 30.09 in 1.2 mi WNW 11.5 mph - 0.01 in Snow Light Snow
12:31 PM 26.6 °F 16.8 °F 23.0 °F 86% 30.10 in 1.0 mi NW 10.4 mph - 0.01 in Snow Light Snow
12:42 PM 26.6 °F 16.8 °F 23.0 °F 86% 30.10 in 0.5 mi NW 10.4 mph 18.4 mph 0.01 in Fog , Snow Snow
12:49 PM 26.6 °F 16.2 °F 23.0 °F 86% 30.10 in 0.5 mi NW 11.5 mph - 0.01 in Fog , Snow Snow
12:54 PM 26.1 °F 15.6 °F 23.0 °F 88% 30.20 in 0.5 mi NNW 11.5 mph 19.6 mph 0.01 in Fog , Snow Snow
1:10 PM 26.6 °F 16.2 °F 21.2 °F 80% 30.11 in 1.0 mi NW 11.5 mph 17.3 mph 0.00 in Snow Light Snow
1:18 PM 26.6 °F 15.7 °F 21.2 °F 80% 30.12 in 0.8 mi NNW 12.7 mph 19.6 mph 0.00 in Snow Light Snow
1:26 PM 26.6 °F 16.2 °F 21.2 °F 80% 30.13 in 1.2 mi NNW 11.5 mph 18.4 mph 0.00 in Snow Light Snow
1:43 PM 26.6 °F 19.1 °F 21.2 °F 80% 30.12 in 3.0 mi NW 6.9 mph - 0.01 in Snow Light Snow
1:54 PM 26.1 °F 16.8 °F 21.9 °F 84% 30.22 in 1.5 mi NW 9.2 mph - 0.01 in Snow Light Snow
1:59 PM 26.6 °F 17.5 °F 21.2 °F 80% 30.13 in 0.8 mi NNW 9.2 mph 16.1 mph 0.00 in Snow Light Snow
2:11 PM 26.6 °F 17.5 °F 19.4 °F 74% 30.13 in 2.0 mi NW 9.2 mph - 0.00 in Snow Light Snow
2:23 PM 26.6 °F 15.2 °F 21.2 °F 80% 30.13 in 1.2 mi NW 13.8 mph 19.6 mph 0.00 in Snow Light Snow
2:29 PM 26.6 °F 13.8 °F 21.2 °F 80% 30.13 in 2.0 mi NW 17.3 mph 23.0 mph 0.00 in Snow Light Snow
2:44 PM 26.6 °F 16.8 °F 21.2 °F 80% 30.13 in 1.0 mi NW 10.4 mph 20.7 mph 0.00 in Snow Light Snow
2:51 PM 26.6 °F 15.7 °F 21.2 °F 80% 30.14 in 0.8 mi NW 12.7 mph 19.6 mph 0.00 in Snow Light Snow
2:54 PM 26.1 °F 15.0 °F 21.9 °F 84% 30.24 in 0.8 mi NW 12.7 mph - 0.00 in Snow Light Snow
2:59 PM 26.6 °F 16.8 °F 21.2 °F 80% 30.14 in 1.0 mi NW 10.4 mph 19.6 mph 0.00 in Snow Light Snow
3:06 PM 26.6 °F 15.7 °F 21.2 °F 80% 30.14 in 0.8 mi WNW 12.7 mph - 0.00 in Snow Light Snow
3:10 PM 26.6 °F 14.7 °F 21.2 °F 80% 30.15 in 1.2 mi WNW 15.0 mph 20.7 mph 0.00 in Snow Light Snow
3:18 PM 26.6 °F 15.2 °F 21.2 °F 80% 30.14 in 1.2 mi WNW 13.8 mph - 0.00 in Snow Light Snow
3:45 PM 26.6 °F 15.7 °F 21.2 °F 80% 30.15 in 2.0 mi NW 12.7 mph 17.3 mph 0.00 in Snow Light Snow
3:51 PM 26.6 °F 16.2 °F 19.4 °F 74% 30.15 in 6.0 mi NW 11.5 mph - 0.00 in Snow Light Snow
3:54 PM 26.1 °F 15.0 °F 19.9 °F 78% 30.25 in 7.0 mi WNW 12.7 mph - 0.00 in   Overcast
5:51 PM 24.8 °F 12.9 °F 21.2 °F 86% 30.18 in 1.8 mi NW 13.8 mph 19.6 mph 0.00 in Snow Light Snow
5:54 PM 25.0 °F 13.6 °F 21.0 °F 85% 30.30 in 1.5 mi WNW 12.7 mph 19.6 mph 0.00 in Snow Light Snow
6:00 PM 26.6 °F 15.2 °F 19.4 °F 74% 30.19 in 3.0 mi NW 13.8 mph - 0.00 in Snow Light Snow
6:54 PM 25.0 °F 14.8 °F 19.9 °F 81% 30.32 in 10.0 mi WNW 10.4 mph - 0.00 in   Overcast
7:54 PM 24.1 °F 14.4 °F 21.0 °F 88% 30.35 in 10.0 mi WNW 9.2 mph - N/A   Overcast
7:58 PM 24.8 °F 15.3 °F 21.2 °F 86% 30.23 in 10.0 mi WNW 9.2 mph - N/A   Overcast
8:25 PM 24.8 °F 15.3 °F 21.2 °F 86% 30.23 in 10.0 mi WNW 9.2 mph - N/A   Overcast
8:43 PM 24.8 °F 16.9 °F 21.2 °F 86% 30.23 in 10.0 mi WNW 6.9 mph - N/A   Overcast
8:54 PM 24.1 °F 16.0 °F 21.0 °F 88% 30.35 in 10.0 mi WNW 6.9 mph - N/A   Overcast
9:22 PM 23.0 °F 13.9 °F 19.4 °F 86% 30.23 in 10.0 mi West 8.1 mph - N/A   Overcast
9:54 PM 21.0 °F 12.4 °F 18.0 °F 88% 30.37 in 10.0 mi West 6.9 mph - N/A   Overcast
10:54 PM 19.9 °F 9.3 °F 17.1 °F 89% 30.38 in 10.0 mi West 9.2 mph - N/A   Overcast
11:54 PM 19.0 °F 11.1 °F 17.1 °F 92% 30.40 in 10.0 mi SSW 5.8 mph - N/A   Overcast